(499937) = 2011 HB44

Discovered at Mount Lemmon on 2011-03-01 by Mt. Lemmon Survey.

Orbit

Orbit type: Main Belt

Note: WebGL enabled browser required.

epoch2023-09-13.0
epoch JD2460200.5
perihelion date2021-09-02.90247
perihelion JD2459460.40247
argument of perihelion (°)49.44002
ascending node (°)156.77747
inclination (°)3.79926
eccentricity0.1713786
perihelion distance (AU)2.5005188
Tisserand w.r.t. Jupiter3.2
ΔV w.r.t. Earth (km/sec)10.0
semimajor axis (AU)3.0176855
mean anomaly (°)139.14956
mean daily motion (°/day)0.18801520
aphelion distance (AU)3.535
period (years)5.24
P-vector [x]-0.89646520
P-vector [y]-0.42394142
P-vector [z]-0.12893336
Q-vector [x]0.44234322
Q-vector [y]-0.83902842
Q-vector [z]-0.31680244
absolute magnitude17.16
phase slope0.15
uncertainty0
referenceMPO 780337
observations used114
oppositions9
arc length (days)8613
first opposition used2000
last opposition used2023
residual rms (arc-secs)0.73
perturbers coarse indicatorM-v
perturbers precise indicator003Ek
first observation date used2000-03-12.0
last observation date used2023-10-11.0
computer nameMPCLINUX
JD of orbit computation2457982.360344
perihelion JD uncertainty (days)6.6766E-05
argument of perihelion uncertainty (°)4.9257E-05
ascending node uncertainty (°)4.6514E-05
inclination uncertainty (°)3.8319E-06
eccentricity uncertainty 3.5994E-08
perihelion distance uncertainty (AU)1.0560E-07
Minimum Orbit Intersection Distances (in AU)
for orbit epoch: 2460200.5, reference: E2023-TI3
Mercury2.06412
Venus1.7785
Earth1.49751
Mars0.87733
Jupiter1.42404
Saturn5.67843
Uranus15.7479
Neptune26.3043

Observations

120 total observations over interval: 2000 03 12.18456 – 2023 10 11.412794
These data are available for download (format description).

